Location: Unspecified
(56.5167°N, 0.0000°E)
Time: 14:13:14
(UTC+02:00)

Cosmos 1674 - Visible Passes

Search period start: 22 September 2014 00:00
Search period end: 02 October 2014 00:00
Orbit: 514 x 542 km, 82.5° (Epoch: 21 September)

Date Brightness Start Highest point End Pass type
(mag) Time Alt. Az. Time Alt. Az. Time Alt. Az.
22 Sep 4.2 20:51:46 10° N 20:54:52 22° ENE 20:57:38 12° ESE visible
22 Sep 3.4 22:27:18 10° NNW 22:31:10 54° W 22:32:56 29° SSW visible
23 Sep 4.2 20:40:46 10° NNE 20:43:47 21° ENE 20:46:48 10° ESE visible
23 Sep 3.3 22:16:14 10° NNW 22:20:07 59° W 22:22:13 25° SSW visible
24 Sep 4.3 20:29:45 10° NNE 20:32:41 20° ENE 20:35:37 10° ESE visible
24 Sep 3.2 22:05:09 10° NNW 22:09:04 63° W 22:11:33 21° S visible
25 Sep 3.0 21:54:04 10° NNW 21:58:00 68° W 22:00:55 17° S visible
26 Sep 3.0 21:42:59 10° NNW 21:46:56 73° W 21:50:21 14° S visible
26 Sep 5.9 23:21:20 10° WNW 23:22:10 11° W 23:22:59 10° W visible
27 Sep 2.9 21:31:53 10° NNW 21:35:52 78° W 21:39:50 10° S visible
27 Sep 5.9 23:09:52 10° WNW 23:11:08 11° W 23:12:23 10° W visible
28 Sep 2.8 21:20:48 10° NNW 21:24:47 84° W 21:28:45 10° S visible
28 Sep 5.8 22:58:30 10° WNW 23:00:05 12° W 23:01:40 10° WSW visible
29 Sep 2.8 21:09:42 10° NNW 21:13:41 89° WSW 21:17:40 10° S visible
29 Sep 5.8 22:47:12 10° NW 22:49:02 13° W 22:50:52 10° WSW visible
30 Sep 2.7 20:58:35 10° NNW 21:02:35 85° ENE 21:06:34 10° SSE visible
30 Sep 5.8 22:35:55 10° NW 22:37:58 14° W 22:40:01 10° WSW visible
01 Oct 2.7 20:47:29 10° N 20:51:29 80° ENE 20:55:28 10° SSE visible
01 Oct 5.8 22:24:40 10° NW 22:26:54 15° W 22:29:09 10° WSW visible
